Starlink 3665

operational
NORAD ID: 52098 Int'l Des: 2022-029 Owner: SPXS Country: US Constellation: starlink
LEOCIRCULAR

Starlink 3665について

説明を読み込み中...

リアルタイム位置

3D地球を読み込み中...

次回通過

高度履歴

Altitude vs Time

uPlot chart will show altitude changes over time

軌道要素

1 52098U 22029L 25305.29635343 -.00000328 00000-0 -25014-5 0 9991
2 52098 53.2179 305.4984 0001425 94.7249 265.3906 15.08829385201275
Epoch: Nov 1, 2025 • Age: 24 hours

現在のステータス

高度 543.0 km
速度 7.60 km/s
衛星直下点 42.25°N, 75.91°W
打ち上げ日 Mar 19, 2022
運用期間 3.6 years
タイプ internet

技術仕様

分類 Payload
質量 297.00 kg
乾燥質量 275.00 kg
総質量 297.00 kg
長さ 0.20 m
直径 2.80 m
スパン 9.00 m
形状 Box + pan
製造者 SPXS
バスタイプ Starlink
フェーズステータス In Orbit
所有者/国 SPXS/US

大規模コンステレーション

Loading constellations...